EW2575 Weather Reports


Display with metric or nautical units.
time (UTC)temp
F
wind
direction
speed
MPH
gust
MPH
rain 1hr
in
rain 24hr
in
rain mn
in
humidity
%
barometer
mb
20260509141524 65 315 7.0 18.0 0.00 0.08 0.00 65 1017.2
20260509141019 64 277 11.0 18.0 0.00 0.08 0.00 65 1017.3
20260509140517 64 286 8.0 19.0 0.00 0.08 0.00 66 1017.3
20260509140017 64 270 13.0 19.0 0.00 0.08 0.00 65 1017.4
20260509135516 64 252 11.0 20.0 0.00 0.08 0.00 65 1017.4
20260509135017 63 306 10.0 14.0 0.00 0.08 0.00 66 1017.5
20260509134514 64 288 6.0 13.0 0.00 0.08 0.00 67 1017.5
20260509134014 63 261 6.0 15.0 0.00 0.08 0.00 71 1017.5
20260509133512 62 267 7.0 15.0 0.00 0.08 0.00 72 1017.5
20260509133012 63 345 8.0 14.0 0.00 0.08 0.00 73 1017.5
20260509132512 62 255 3.0 13.0 0.00 0.08 0.00 76 1017.5
20260509132012 62 260 9.0 13.0 0.00 0.08 0.00 73 1017.5
20260509131517 62 288 7.0 14.0 0.00 0.08 0.00 75 1017.6
20260509131010 61 269 9.0 14.0 0.00 0.08 0.00 76 1017.7
20260509130510 61 257 8.0 13.0 0.00 0.08 0.00 77 1017.7
20260509130010 61 271 8.0 14.0 0.00 0.08 0.00 78 1017.8
20260509125514 62 279 9.0 15.0 0.00 0.08 0.00 80 1017.8
20260509125008 61 249 10.0 15.0 0.00 0.08 0.00 80 1017.8
20260509124511 61 248 11.0 15.0 0.00 0.08 0.00 81 1017.8
20260509124007 61 275 5.0 15.0 0.00 0.08 0.00 82 1017.9
20260509123507 60 265 9.0 15.0 0.00 0.08 0.00 83 1017.9
20260509123007 61 295 9.0 14.0 0.00 0.08 0.00 84 1017.8
20260509122508 60 284 5.0 16.0 0.00 0.08 0.00 85 1017.8
20260509122006 61 267 9.0 16.0 0.00 0.08 0.00 85 1017.8
20260509121517 61 269 10.0 14.0 0.00 0.08 0.00 84 1017.7
20260509121005 61 264 8.0 14.0 0.00 0.08 0.00 83 1017.8
20260509120505 61 242 10.0 15.0 0.00 0.08 0.00 81 1017.7
20260509120007 61 266 10.0 15.0 0.00 0.08 0.00 81 1017.8
20260509115502 61 271 6.0 12.0 0.00 0.08 0.00 82 1017.9
20260509115004 60 273 6.0 12.0 0.00 0.08 0.00 83 1017.8
20260509114607 60 231 4.0 13.0 0.00 0.08 0.00 83 1017.8
20260509114002 60 284 8.0 12.0 0.00 0.08 0.00 83 1017.9
20260509113601 60 333 6.0 12.0 0.00 0.08 0.00 82 1017.9
20260509113100 60 271 9.0 12.0 0.00 0.08 0.00 81 1017.9
20260509112559 60 286 4.0 12.0 0.00 0.08 0.00 83 1017.8
20260509112101 60 246 8.0 12.0 0.00 0.08 0.00 84 1017.9
20260509111559 60 261 9.0 12.0 0.00 0.08 0.00 83 1017.8
20260509111059 60 257 8.0 12.0 0.00 0.08 0.00 82 1017.8
20260509110558 60 290 2.0 11.0 0.00 0.08 0.00 82 1017.8
20260509110059 60 236 7.0 12.0 0.00 0.08 0.00 82 1017.7
20260509105559 60 263 7.0 12.0 0.00 0.08 0.00 81 1017.8
20260509105056 60 272 4.0 12.0 0.00 0.08 0.00 82 1017.7
20260509104556 60 274 5.0 10.0 0.00 0.08 0.00 83 1017.7
20260509104055 60 295 2.0 8.0 0.00 0.08 0.00 84 1017.6
20260509103555 60 287 3.0 10.0 0.00 0.08 0.00 84 1017.6
20260509103055 60 315 4.0 12.0 0.00 0.08 0.00 85 1017.6
20260509102555 60 279 7.0 12.0 0.00 0.08 0.00 85 1017.6
20260509102054 60 271 7.0 13.0 0.00 0.08 0.00 84 1017.6
20260509101553 59 267 9.0 13.0 0.00 0.08 0.00 86 1017.6
20260509101051 59 303 5.0 11.0 0.00 0.08 0.00 89 1017.6
20260509100550 58 284 7.0 11.0 0.00 0.08 0.00 89 1017.5
20260509100055 58 279 5.0 9.0 0.00 0.08 0.00 90 1017.6
20260509095548 57 236 3.0 5.0 0.00 0.08 0.00 90 1017.5
20260509095049 57 242 3.0 5.0 0.00 0.08 0.00 90 1017.4
20260509094551 57 300 2.0 6.0 0.00 0.08 0.00 90 1017.4
20260509094046 57 234 3.0 8.0 0.00 0.08 0.00 90 1017.4
20260509093546 57 266 4.0 7.0 0.00 0.08 0.00 89 1017.4
20260509093046 57 269 4.0 9.0 0.00 0.08 0.00 89 1017.4
20260509092545 57 282 5.0 9.0 0.00 0.08 0.00 88 1017.4
20260509092047 58 253 5.0 9.0 0.00 0.08 0.00 87 1017.3
20260509091544 58 254 6.0 9.0 0.00 0.08 0.00 86 1017.3
20260509091045 58 238 4.0 8.0 0.00 0.08 0.00 85 1017.3
20260509090542 58 202 3.0 7.0 0.00 0.08 0.00 85 1017.2
20260509090041 58 273 2.0 8.0 0.00 0.08 0.00 85 1017.2
20260509085540 58 259 3.0 8.0 0.00 0.08 0.00 84 1017.2
20260509085041 58 246 3.0 7.0 0.00 0.08 0.00 84 1017.1
20260509084539 58 247 3.0 6.0 0.00 0.08 0.00 83 1017.1
20260509084040 58 217 1.0 3.0 0.00 0.08 0.00 83 1017.0
20260509083541 57 252 1.0 4.0 0.00 0.08 0.00 83 1017.0
20260509083040 57 229 1.0 4.0 0.00 0.08 0.00 84 1016.9
20260509082536 57 165 2.0 6.0 0.00 0.08 0.00 84 1017.0
20260509082035 57 177 3.0 8.0 0.00 0.08 0.00 84 1016.9
20260509081543 57 248 2.0 8.0 0.00 0.08 0.00 84 1016.8
20260509081033 56 219 5.0 8.0 0.00 0.08 0.00 84 1016.8
20260509080533 56 113 2.0 8.0 0.00 0.08 0.00 85 1016.7
20260509080032 55 128 5.0 8.0 0.00 0.08 0.00 85 1016.7
20260509075531 55 101 5.0 8.0 0.00 0.08 0.00 85 1016.5
20260509075030 54 119 5.0 11.0 0.00 0.08 0.00 85 1016.6
20260509074531 54 127 5.0 11.0 0.00 0.08 0.00 86 1016.5
20260509074028 53 119 7.0 11.0 0.00 0.08 0.00 85 1016.4
20260509073527 53 128 8.0 11.0 0.00 0.08 0.00 86 1016.4
20260509073026 53 116 7.0 11.0 0.00 0.08 0.00 86 1016.3
20260509072532 52 129 8.0 12.0 0.00 0.08 0.00 86 1016.3
20260509072025 52 98 8.0 11.0 0.00 0.08 0.00 85 1016.3
20260509071525 52 127 8.0 12.0 0.00 0.08 0.00 85 1016.3
20260509071024 52 117 9.0 12.0 0.00 0.08 0.00 84 1016.3
20260509070524 53 136 8.0 12.0 0.00 0.08 0.00 85 1016.2
20260509070023 52 132 7.0 10.0 0.00 0.08 0.00 84 1016.2
20260509065525 52 115 8.0 10.0 0.00 0.08 0.00 84 1016.2
20260509065021 53 115 7.0 9.0 0.00 0.08 0.00 86 1016.2
20260509064520 52 125 6.0 10.0 0.00 0.08 0.00 84 1016.1
20260509064023 52 140 7.0 12.0 0.00 0.08 0.00 84 1016.0
20260509063518 52 131 9.0 12.0 0.00 0.08 0.00 84 1016.0
20260509063019 51 124 8.0 12.0 0.00 0.08 0.00 84 1015.9
20260509062518 51 117 8.0 12.0 0.00 0.08 0.00 84 1015.8
20260509062018 51 117 6.0 10.0 0.00 0.08 0.00 84 1015.7
20260509061518 51 113 8.0 12.0 0.00 0.08 0.00 84 1015.7
20260509061021 51 117 9.0 12.0 0.00 0.08 0.00 84 1015.7
20260509060520 51 98 8.0 13.0 0.00 0.08 0.00 83 1015.7
20260509060018 51 134 9.0 13.0 0.00 0.08 0.00 83 1015.6
20260509055517 51 119 9.0 12.0 0.00 0.08 0.00 83 1015.5
20260509055019 51 119 7.0 11.0 0.00 0.08 0.00 82 1015.4
20260509054521 51 122 8.0 11.0 0.00 0.08 0.00 83 1015.4
20260509054014 51 117 9.0 12.0 0.00 0.08 0.00 82 1015.4
20260509053514 51 119 9.0 12.0 0.00 0.08 0.00 82 1015.4
20260509053014 51 109 8.0 10.0 0.00 0.08 0.00 81 1015.4
20260509052514 52 118 8.0 11.0 0.00 0.08 0.00 81 1015.4
20260509052016 51 127 8.0 11.0 0.00 0.08 0.00 82 1015.4
20260509051520 51 117 8.0 13.0 0.00 0.08 0.00 82 1015.4
20260509051012 51 121 8.0 13.0 0.00 0.08 0.00 81 1015.3
20260509050513 52 117 8.0 12.0 0.00 0.08 0.00 81 1015.3
20260509050019 52 126 8.0 11.0 0.00 0.08 0.00 81 1015.2
20260509045515 52 119 8.0 13.0 0.00 0.08 0.00 82 1015.2
20260509045012 51 104 9.0 13.0 0.00 0.08 0.00 82 1015.1
20260509044514 51 109 8.0 13.0 0.00 0.08 0.00 82 1015.1
20260509044010 52 112 9.0 12.0 0.00 0.08 0.00 81 1015.0
20260509043513 52 121 8.0 11.0 0.00 0.08 0.00 81 1015.1
20260509043009 52 133 7.0 10.0 0.00 0.08 0.00 82 1015.1
20260509042508 52 117 7.0 10.0 0.00 0.08 0.00 81 1015.1
20260509042007 52 136 6.0 11.0 0.00 0.08 0.00 81 1015.0
20260509041507 52 110 8.0 11.0 0.00 0.08 0.00 82 1015.1
20260509041008 52 117 7.0 11.0 0.00 0.08 0.00 83 1015.2
20260509040506 52 122 8.0 11.0 0.00 0.08 0.00 83 1015.2
20260509040006 52 129 7.0 12.0 0.00 0.08 0.00 83 1015.2
20260509035510 52 109 8.0 12.0 0.00 0.08 0.00 83 1015.2
20260509035006 52 119 8.0 12.0 0.00 0.08 0.00 83 1015.1
20260509034504 52 119 9.0 12.0 0.00 0.08 0.00 83 1015.1
20260509034004 53 130 8.0 12.0 0.00 0.08 0.00 83 1015.2
20260509033504 52 114 6.0 12.0 0.00 0.08 0.00 83 1015.2
20260509033005 52 129 9.0 13.0 0.00 0.08 0.00 83 1015.2
20260509032504 52 118 8.0 13.0 0.00 0.08 0.00 83 1015.2
20260509032003 52 128 9.0 12.0 0.00 0.08 0.00 84 1015.2
20260509031503 52 124 7.0 11.0 0.00 0.08 0.00 84 1015.2
20260509031001 52 111 8.0 11.0 0.00 0.08 0.00 84 1015.2
20260509030501 52 109 8.0 10.0 0.00 0.08 0.00 83 1015.2
20260509030100 52 109 7.0 10.0 0.00 0.08 0.00 83 1015.2
20260509025559 52 111 6.0 9.0 0.00 0.08 0.00 82 1015.1
20260509025059 53 109 5.0 9.0 0.00 0.08 0.00 82 1015.1
20260509024557 53 104 4.0 10.0 0.00 0.08 0.00 83 1015.2
20260509024057 52 113 7.0 10.0 0.00 0.08 0.00 81 1015.3
20260509023557 53 106 7.0 10.0 0.00 0.08 0.00 81 1015.3
20260509023101 53 119 6.0 10.0 0.00 0.08 0.00 81 1015.3
20260509022554 53 109 7.0 10.0 0.00 0.08 0.00 82 1015.4
20260509022056 52 123 4.0 10.0 0.00 0.08 0.00 81 1015.5
20260509021553 52 121 7.0 12.0 0.00 0.08 0.00 81 1015.5
20260509021051 52 113 9.0 12.0 0.00 0.08 0.00 81 1015.5
20260509020554 52 121 7.0 11.0 0.00 0.08 0.00 80 1015.5
20260509020055 53 98 6.0 10.0 0.00 0.08 0.00 80 1015.6
20260509015548 53 115 7.0 10.0 0.00 0.08 0.00 79 1015.6
20260509015047 54 119 3.0 8.0 0.00 0.08 0.00 80 1015.7
20260509014547 54 78 4.0 8.0 0.00 0.08 0.00 80 1015.7
20260509014049 54 137 2.0 9.0 0.00 0.08 0.00 81 1015.8
20260509013546 53 115 7.0 10.0 0.00 0.08 0.00 81 1015.8
20260509013106 53 121 4.0 11.0 0.00 0.08 0.00 81 1015.9
20260509012542 54 116 8.0 11.0 0.00 0.08 0.00 80 1016.0
20260509012042 54 121 5.0 9.0 0.00 0.08 0.00 80 1016.0
20260509011543 54 114 5.0 9.0 0.00 0.08 0.00 80 1016.0
20260509011041 54 135 5.0 9.0 0.00 0.08 0.00 80 1016.0
20260509010542 54 119 5.0 10.0 0.00 0.08 0.00 80 1016.1
20260509010040 54 130 7.0 10.0 0.00 0.08 0.00 79 1016.1
20260509005538 54 110 5.0 9.0 0.00 0.08 0.00 80 1016.1
20260509005039 54 137 6.0 9.0 0.00 0.08 0.00 79 1016.1
20260509004537 54 136 4.0 9.0 0.00 0.08 0.00 79 1016.2
20260509004037 54 142 4.0 10.0 0.00 0.08 0.00 79 1016.2
20260509003537 55 128 7.0 10.0 0.00 0.08 0.00 78 1016.2
20260509003036 55 134 5.0 7.0 0.00 0.08 0.00 77 1016.2
20260509002539 55 132 4.0 7.0 0.00 0.08 0.00 77 1016.3
20260509002036 55 134 3.0 11.0 0.00 0.08 0.00 78 1016.3
20260509001535 54 142 8.0 11.0 0.00 0.08 0.00 78 1016.4
20260509001035 54 114 7.0 9.0 0.00 0.08 0.00 77 1016.5
20260509000534 55 109 5.0 13.0 0.00 0.08 0.00 77 1016.5
20260509000034 55 121 5.0 13.0 0.00 0.08 0.00 77 1016.4
20260508235533 54 101 5.0 9.0 0.00 0.08 0.00 78 1016.4
20260508235032 54 127 4.0 10.0 0.00 0.08 0.00 77 1016.5
20260508234531 54 111 8.0 10.0 0.00 0.08 0.00 77 1016.6
20260508234033 55 107 6.0 10.0 0.00 0.08 0.00 77 1016.5
20260508233528 55 107 6.0 10.0 0.00 0.08 0.00 76 1016.4
20260508233027 56 84 2.0 10.0 0.00 0.08 0.00 76 1016.4
20260508232525 56 290 3.0 14.0 0.00 0.08 0.00 76 1016.3
20260508232024 57 298 9.0 14.0 0.00 0.08 0.00 75 1016.2
20260508231523 57 286 8.0 13.0 0.00 0.08 0.00 74 1016.2
20260508231024 57 272 6.0 17.0 0.00 0.08 0.00 73 1016.1
20260508230521 57 261 10.0 17.0 0.00 0.08 0.00 72 1016.2
20260508230040 57 252 9.0 15.0 0.00 0.08 0.00 71 1016.1
20260508225520 56 264 6.0 13.0 0.00 0.08 0.08 70 1016.2
20260508225020 56 268 10.0 13.0 0.00 0.08 0.08 70 1016.2
20260508224540 56 278 5.0 11.0 0.00 0.08 0.08 73 1016.1
20260508224018 56 245 3.0 7.0 0.00 0.08 0.08 74 1016.2
20260508223521 56 279 3.0 7.0 0.00 0.08 0.08 77 1016.2
20260508223027 56 271 3.0 9.0 0.00 0.08 0.08 81 1016.2
20260508222517 56 239 3.0 9.0 0.00 0.08 0.08 84 1016.1
20260508222016 56 227 2.0 4.0 0.00 0.08 0.08 86 1016.2
20260508221515 56 254 1.0 4.0 0.00 0.08 0.08 87 1016.1
20260508221019 56 254 2.0 5.0 0.00 0.08 0.08 87 1016.1
20260508220514 57 268 2.0 5.0 0.00 0.08 0.08 87 1016.1
20260508220014 57 244 2.0 5.0 0.00 0.08 0.08 87 1016.0
20260508215513 57 211 3.0 5.0 0.00 0.08 0.08 87 1016.0
20260508215013 57 198 2.0 5.0 0.00 0.08 0.08 86 1016.0
20260508214512 57 229 2.0 10.0 0.00 0.08 0.08 85 1015.9
20260508214014 58 261 5.0 10.0 0.00 0.08 0.08 83 1015.9
20260508213511 58 263 6.0 10.0 0.00 0.08 0.08 81 1015.8
20260508213010 58 218 5.0 10.0 0.00 0.08 0.08 79 1015.7
20260508212511 58 229 5.0 10.0 0.00 0.08 0.08 78 1015.7
20260508212009 58 265 3.0 11.0 0.00 0.08 0.08 77 1015.6
20260508211512 58 271 6.0 11.0 0.00 0.08 0.08 77 1015.5
20260508211008 58 249 5.0 11.0 0.00 0.08 0.08 76 1015.5
20260508210515 59 276 6.0 11.0 0.00 0.08 0.08 76 1015.6
20260508210008 59 294 4.0 16.0 0.00 0.08 0.08 77 1015.6
20260508205513 58 5 7.0 16.0 0.00 0.08 0.08 78 1015.5
20260508205008 58 294 4.0 11.0 0.00 0.08 0.08 80 1015.5
20260508204515 58 277 6.0 11.0 0.00 0.08 0.08 83 1015.3
20260508204005 58 270 6.0 10.0 0.00 0.08 0.08 86 1015.3
20260508203505 58 282 7.0 12.0 0.00 0.08 0.08 86 1015.3
20260508203006 59 264 8.0 12.0 0.00 0.08 0.08 85 1015.2
20260508202506 59 292 8.0 16.0 0.00 0.08 0.08 85 1015.1
20260508202005 59 275 8.0 16.0 0.00 0.08 0.08 86 1015.1
20260508201540 59 277 7.0 14.0 0.00 0.08 0.08 85 1015.1
20260508201012 59 247 7.0 14.0 0.00 0.08 0.08 83 1015.1
20260508200504 59 275 6.0 12.0 0.00 0.08 0.08 81 1015.0
20260508200004 59 300 7.0 12.0 0.00 0.08 0.08 80 1015.0
20260508195504 59 318 6.0 15.0 0.00 0.08 0.08 80 1014.9
20260508195004 59 316 9.0 15.0 0.00 0.08 0.08 81 1015.0
20260508194503 59 298 6.0 17.0 0.00 0.08 0.08 82 1014.9
20260508194002 59 285 8.0 17.0 0.00 0.08 0.08 82 1014.8
20260508193503 59 269 6.0 17.0 0.00 0.08 0.08 83 1014.8
20260508193002 59 229 9.0 16.0 0.00 0.08 0.08 84 1014.9
20260508192503 59 309 9.0 15.0 0.00 0.08 0.08 83 1014.8
20260508192003 59 275 8.0 15.0 0.00 0.08 0.08 84 1014.8
20260508191504 60 291 10.0 17.0 0.00 0.08 0.08 83 1014.6
20260508191002 60 285 7.0 18.0 0.00 0.08 0.08 83 1014.7
20260508190502 60 286 11.0 18.0 0.00 0.08 0.08 82 1014.6
20260508190001 60 275 10.0 17.0 0.00 0.08 0.08 82 1014.6
20260508185501 60 342 10.0 20.0 0.00 0.08 0.08 82 1014.5
20260508185002 61 272 11.0 20.0 0.00 0.08 0.08 81 1014.5
20260508184635 61 282 9.0 20.0 0.00 0.08 0.08 80 1014.4
20260508184100 61 257 10.0 20.0 0.00 0.08 0.08 79 1014.3
20260508183559 61 275 9.0 19.0 0.00 0.08 0.08 77 1014.3
20260508183114 61 269 11.0 18.0 0.00 0.08 0.08 78 1014.3
20260508182600 62 275 9.0 18.0 0.00 0.08 0.08 78 1014.3
20260508182100 61 236 10.0 18.0 0.00 0.08 0.08 78 1014.3
20260508181601 62 279 6.0 16.0 0.00 0.08 0.08 79 1014.2
20260508181059 61 259 5.0 19.0 0.00 0.08 0.08 80 1014.4
20260508180600 60 275 7.0 19.0 0.00 0.08 0.08 80 1014.4
20260508180105 61 279 9.0 16.0 0.00 0.08 0.08 82 1014.3
20260508175559 61 292 9.0 16.0 0.00 0.08 0.08 84 1014.3
20260508175058 61 290 5.0 16.0 0.00 0.08 0.08 82 1014.3
20260508174617 61 273 10.0 17.0 0.00 0.08 0.08 81 1014.2
20260508174102 61 272 11.0 17.0 0.00 0.08 0.08 80 1014.2
20260508173557 62 287 7.0 16.0 0.00 0.08 0.08 80 1014.2
20260508173118 62 281 6.0 16.0 0.00 0.08 0.08 78 1014.2
20260508172556 62 271 10.0 18.0 0.00 0.08 0.08 76 1014.3
20260508172056 63 271 9.0 18.0 0.00 0.08 0.08 78 1014.3
20260508171623 63 292 8.0 18.0 0.00 0.08 0.08 77 1014.3
20260508171056 63 270 9.0 18.0 0.00 0.08 0.08 76 1014.3
20260508170555 63 308 8.0 17.0 0.00 0.08 0.08 75 1014.2
20260508170055 63 329 9.0 17.0 0.00 0.08 0.08 74 1014.3
20260508165555 63 5 8.0 15.0 0.00 0.08 0.08 76 1014.3
20260508165054 63 297 7.0 16.0 0.00 0.08 0.08 80 1014.2
20260508164558 62 335 8.0 16.0 0.00 0.08 0.08 81 1014.3
20260508164051 62 288 6.0 16.0 0.00 0.08 0.08 84 1014.3
20260508163550 62 287 7.0 15.0 0.00 0.08 0.08 84 1014.3
20260508163056 62 313 8.0 15.0 0.00 0.08 0.08 86 1014.2
20260508162552 61 326 5.0 14.0 0.00 0.08 0.08 87 1014.3
20260508162049 61 323 5.0 14.0 0.00 0.08 0.08 89 1014.3
20260508161559 61 317 7.0 14.0 0.00 0.08 0.08 90 1014.4
20260508161048 60 292 7.0 14.0 0.00 0.08 0.08 91 1014.3
20260508160551 60 323 7.0 14.0 0.00 0.08 0.08 92 1014.3
20260508160048 61 288 7.0 17.0 0.00 0.08 0.08 93 1014.4
20260508155547 60 294 9.0 17.0 0.02 0.08 0.08 93 1014.4
20260508155048 60 300 5.0 14.0 0.06 0.08 0.08 94 1014.4
20260508154547 60 306 10.0 17.0 0.06 0.08 0.08 94 1014.3
20260508154046 59 261 9.0 17.0 0.07 0.08 0.08 95 1014.4
20260508153547 59 271 10.0 18.0 0.08 0.08 0.08 95 1014.4
20260508153046 59 267 12.0 17.0 0.08 0.08 0.08 95 1014.4
20260508152546 59 279 9.0 16.0 0.08 0.08 0.08 95 1014.4
20260508152045 59 294 8.0 17.0 0.08 0.08 0.08 95 1014.4
20260508151552 58 263 9.0 17.0 0.08 0.08 0.08 95 1014.4
20260508151044 58 263 10.0 18.0 0.08 0.08 0.08 95 1014.4
20260508150547 59 275 10.0 18.0 0.08 0.08 0.08 95 1014.3
20260508150045 58 288 8.0 18.0 0.08 0.08 0.08 94 1014.3
20260508145544 58 278 11.0 18.0 0.05 0.05 0.05 93 1014.3
20260508145043 59 288 11.0 15.0 0.02 0.02 0.02 93 1014.3
20260508144542 59 293 9.0 15.0 0.01 0.01 0.01 91 1014.4
20260508144042 59 272 7.0 14.0 0.01 0.01 0.01 90 1014.4
20260508143542 60 282 10.0 14.0 0.00 0.00 0.00 89 1014.4
20260508143042 59 317 4.0 10.0 0.00 0.00 0.00 89 1014.4
20260508142541 59 275 3.0 9.0 0.00 0.00 0.00 89 1014.4
20260508142041 59 334 3.0 10.0 0.00 0.00 0.00 88 1014.5
20260508141542 59 331 6.0 9.0 0.00 0.00 0.00 87 1014.5